Content
SEND FEEDBACK

Daily
Averages
Monthly
Summary
Canada

BEDFORD, QUEBEC


Home > North America > Canada > Quebec
Elevation: 174 feet     Latitude: 45 28N     Longitude: 073 45W

WEATHER
 
SELECT A DAY
Number of Records: 198,022;   Date Range: 1/1/95 - 7/20/14
 
SHARE

PRINT THIS DATA

[ ← Previous Day ]
WEATHER ALMANAC - JANUARY 10, 2013
[ Next Day → ]
[ °C ]   °F
Weather ElementAverageHighLow
Temperature35.2 °F37.4 °F (1:00 am)32 °F (11:00 pm)
Dewpoint25.8 °F30.2 °F (1:00 am) (7:00 pm)
Humidity70.1 %75 % (1:00 am)59 % (7:00 am)
Barometer29.31 in30.58 in (8:00 pm) (7:00 pm)
Wind Speed14.1 mph27.6 mph (2:00 am)
Wind Gust35.7 mph (2:00 am)
Weather ElementAverage
Visibility18.1 mi
Wind DirectionWSW (256.4 °)

Weather ElementTotal
Precipitation---
Heating Degree Days30.3 (Base 65)
Averaged from 28 records on January 10, 2013
WEATHER CONDITIONS BREAKOUT
WIND DIRECTION BREAKOUT
WEATHER BY HOUR - JANUARY 10, 2013
[ °C ]   °F
Local TimeTemperatureDewpointHumidityBarometerVisibilityWind DirectionWind SpeedGust SpeedPrecipitationEventsConditions
1:00 AM37.0 °F30.0 °F66 %30.02 in15.0 miWest (270°)23.0 mphPartly Cloudy
1:00 AM37.4 °F30.2 °F75 %30.02 in15.0 miWest (270°)25.3 mph33.4 mphPartly Cloudy
2:00 AM37.4 °F28.4 °F70 %30.09 in15.0 miWest (270°)27.6 mph35.7 mphScattered Clouds
3:00 AM37.4 °F26.6 °F65 %30.14 in15.0 miWest (260°)21.9 mph28.8 mphPartly Cloudy
3:17 AM35.6 °F0.0 °F15.0 miWest (260°)17.3 mph25.3 mphScattered Clouds
4:00 AM35.6 °F28.4 °F75 %30.18 in15.0 miWest (260°)23.0 mph28.8 mphPartly Cloudy
5:00 AM35.6 °F26.6 °F70 %30.22 in15.0 miWSW (250°)18.4 mph27.6 mphMostly Cloudy
6:00 AM35.6 °F26.6 °F70 %30.25 in15.0 miWest (260°)19.6 mph28.8 mphPartly Cloudy
7:00 AM36.0 °F27.0 °F59 %30.29 in15.0 miWest (260°)16.1 mphPartly Cloudy
7:00 AM35.6 °F26.6 °F70 %30.29 in15.0 miWest (260°)17.3 mphScattered Clouds
8:00 AM33.8 °F26.6 °F75 %30.35 in15.0 miWSW (250°)15.0 mphMostly Cloudy
9:00 AM33.8 °F26.6 °F75 %30.40 in15.0 miWSW (250°)20.7 mphMostly Cloudy
10:00 AM33.8 °F26.6 °F75 %30.43 in15.0 miWSW (240°)13.8 mph21.9 mphOvercast
11:00 AM35.6 °F26.6 °F70 %30.45 in15.0 miWest (260°)16.1 mphOvercast
12:00 PM35.6 °F26.6 °F70 %30.45 in30.0 miWest (270°)12.7 mphOvercast
1:00 PM36.0 °F27.0 °F59 %30.46 in28.0 miWest (270°)16.1 mphMostly Cloudy
1:00 PM35.6 °F26.6 °F70 %30.46 in30.0 miWest (270°)16.1 mphMostly Cloudy
2:00 PM35.6 °F26.6 °F70 %30.48 in30.0 miWest (270°)15.0 mphMostly Cloudy
3:00 PM35.6 °F26.6 °F70 %30.52 in30.0 miWest (270°)12.7 mphMostly Cloudy
4:00 PM35.6 °F26.6 °F70 %30.54 in30.0 miWest (280°)10.4 mphMostly Cloudy
5:00 PM35.6 °F26.6 °F70 %30.56 in15.0 miWNW (300°)9.2 mphMostly Cloudy
6:00 PM35.6 °F26.6 °F70 %30.56 in15.0 miWest (260°)2.3 mphMostly Cloudy
7:00 PM34.0 °F26.0 °F64 %30.56 in15.0 miWest (280°)2.3 mphMostly Cloudy
7:00 PM33.8 °F26.6 °F75 %30.56 in15.0 miWNW (290°)2.3 mphMostly Cloudy
8:00 PM33.8 °F26.6 °F75 %30.58 in15.0 miNW (310°)5.8 mphMostly Cloudy
9:00 PM33.8 °F26.6 °F75 %30.58 in15.0 miNorth (350°)3.5 mphMostly Cloudy
10:00 PM33.8 °F24.8 °F70 %30.56 in15.0 miNNE (30°)4.6 mphMostly Cloudy
11:00 PM32.0 °F23.0 °F69 %30.55 in15.0 miESE (110°)6.9 mphPartly Cloudy
Hourly data recorded from CYUL, located miles away from Bedford, Quebec







STORIES FROM OUR PARTNERS